FW1574 Weather Reports


Display with metric or nautical units.
time (UTC)temp
F
wind
direction
speed
MPH
gust
MPH
rain 1hr
in
rain 24hr
in
rain mn
in
humidity
%
barometer
mb
20260510163524 77 273 2.0 3.0 0.00 0.00 0.00 51 1016.4
20260510163024 77 297 1.0 3.0 0.00 0.00 0.00 52 1016.4
20260510162523 76 63 1.0 3.0 0.00 0.00 0.00 51 1016.4
20260510162022 76 239 1.0 3.0 0.00 0.00 0.00 48 1016.4
20260510161520 76 266 1.0 3.0 0.00 0.00 0.00 49 1016.4
20260510161021 75 253 1.0 3.0 0.00 0.00 0.00 55 1016.3
20260510160519 75 289 1.0 3.0 0.00 0.00 0.00 57 1016.2
20260510160024 75 306 1.0 2.0 0.00 0.00 0.00 63 1016.2
20260510155517 75 270 0.0 2.0 0.00 0.00 0.00 62 1016.2
20260510155017 74 285 1.0 2.0 0.00 0.00 0.00 66 1016.3
20260510154516 74 261 0.0 2.0 0.00 0.00 0.00 66 1016.3
20260510154015 74 261 0.0 2.0 0.00 0.00 0.00 71 1016.2
20260510153513 74 261 0.0 2.0 0.00 0.00 0.00 70 1016.2
20260510153022 73 261 1.0 2.0 0.00 0.00 0.00 70 1016.1
20260510152515 73 261 0.0 2.0 0.00 0.00 0.00 71 1016.2
20260510152011 72 261 0.0 2.0 0.00 0.00 0.00 74 1016.2
20260510151510 72 261 1.0 3.0 0.00 0.00 0.00 74 1016.3
20260510151008 71 246 1.0 3.0 0.00 0.00 0.00 74 1016.3
20260510150510 71 275 0.0 2.0 0.00 0.00 0.00 72 1016.4
20260510150007 70 302 1.0 2.0 0.00 0.00 0.00 76 1016.3
20260510145509 70 302 1.0 3.0 0.00 0.00 0.00 81 1016.4
20260510145005 69 302 1.0 3.0 0.00 0.00 0.00 79 1016.4
20260510144503 69 292 0.0 2.0 0.00 0.00 0.00 80 1016.4
20260510144003 69 13 0.0 1.0 0.00 0.00 0.00 82 1016.4
20260510143501 68 111 0.0 1.0 0.00 0.00 0.00 81 1016.3
20260510143100 68 120 0.0 1.0 0.00 0.00 0.00 82 1016.3
20260510142559 68 120 0.0 1.0 0.00 0.00 0.00 83 1016.4
20260510142058 67 120 0.0 0.0 0.00 0.00 0.00 84 1016.4
20260510141557 67 120 0.0 1.0 0.00 0.00 0.00 85 1016.3
20260510141056 67 120 0.0 1.0 0.00 0.00 0.00 85 1016.4
20260510140558 67 120 0.0 1.0 0.00 0.00 0.00 86 1016.3
20260510140055 66 120 0.0 1.0 0.00 0.00 0.00 89 1016.3
20260510135553 65 120 0.0 0.0 0.00 0.00 0.00 90 1016.3
20260510135052 64 120 0.0 1.0 0.00 0.00 0.00 91 1016.3
20260510134552 64 120 0.0 0.0 0.00 0.00 0.00 92 1016.3
20260510134052 63 120 0.0 1.0 0.00 0.00 0.00 93 1016.3
20260510133550 63 120 0.0 1.0 0.00 0.00 0.00 93 1016.4
20260510133047 63 120 0.0 1.0 0.00 0.00 0.00 93 1016.3
20260510132546 62 120 0.0 1.0 0.00 0.00 0.00 95 1016.3
20260510132048 62 120 0.0 0.0 0.00 0.00 0.00 96 1016.2
20260510131544 61 120 0.0 0.0 0.00 0.00 0.00 96 1016.3
20260510131042 60 120 0.0 0.0 0.00 0.00 0.00 96 1016.4
20260510130545 60 120 0.0 0.0 0.00 0.00 0.00 96 1016.3
20260510130045 59 120 0.0 0.0 0.00 0.00 0.00 96 1016.4
20260510125543 59 120 0.0 1.0 0.00 0.00 0.00 96 1016.4
20260510125042 58 120 0.0 1.0 0.00 0.00 0.00 96 1016.4
20260510124604 58 120 0.0 1.0 0.00 0.00 0.00 97 1016.3
20260510124041 57 120 0.0 1.0 0.00 0.00 0.00 96 1016.3
20260510123541 56 120 0.0 0.0 0.00 0.00 0.00 96 1016.4
20260510123041 56 120 0.0 1.0 0.00 0.00 0.00 96 1016.3
20260510122541 56 120 0.0 1.0 0.00 0.00 0.00 97 1016.3
20260510122039 55 120 0.0 1.0 0.00 0.00 0.00 96 1016.2
20260510121539 55 120 0.0 1.0 0.00 0.00 0.00 97 1016.2
20260510121039 54 120 0.0 2.0 0.00 0.00 0.00 96 1016.2
20260510120538 54 120 0.0 2.0 0.00 0.00 0.00 97 1016.0
20260510120037 53 120 0.0 2.0 0.00 0.00 0.00 97 1016.1
20260510115537 53 120 0.0 1.0 0.00 0.00 0.00 97 1016.1
20260510115037 52 120 0.0 1.0 0.00 0.00 0.00 96 1016.1
20260510114540 52 120 0.0 1.0 0.00 0.00 0.00 97 1016.0
20260510114035 52 120 0.0 1.0 0.00 0.00 0.00 97 1016.0
20260510113537 52 120 0.0 1.0 0.00 0.00 0.00 96 1015.8
20260510113036 52 120 0.0 2.0 0.00 0.00 0.00 96 1015.7
20260510112532 51 120 0.0 2.0 0.00 0.00 0.00 96 1015.6
20260510112033 51 120 0.0 0.0 0.00 0.00 0.00 96 1015.5
20260510111554 51 120 0.0 0.0 0.00 0.00 0.00 96 1015.4
20260510111030 51 120 0.0 0.0 0.00 0.00 0.00 96 1015.2
20260510110529 51 120 0.0 0.0 0.00 0.00 0.00 96 1015.1
20260510110034 51 120 0.0 0.0 0.00 0.00 0.00 96 1014.9
20260510105528 51 120 0.0 0.0 0.00 0.00 0.00 96 1014.9
20260510105028 52 120 0.0 0.0 0.00 0.00 0.00 96 1014.9
20260510104538 52 120 0.0 0.0 0.00 0.00 0.00 96 1014.8
20260510104026 52 120 0.0 0.0 0.00 0.00 0.00 96 1014.7
20260510103526 52 120 0.0 0.0 0.00 0.00 0.00 96 1014.7
20260510103033 52 120 0.0 0.0 0.00 0.00 0.00 96 1014.6
20260510102525 51 279 0.0 0.0 0.00 0.00 0.00 96 1014.6
20260510102024 51 279 0.0 0.0 0.00 0.00 0.00 96 1014.4
20260510101525 51 279 0.0 0.0 0.00 0.00 0.00 96 1014.6
20260510101024 51 279 0.0 1.0 0.00 0.00 0.00 96 1014.6
20260510100528 51 280 0.0 1.0 0.00 0.00 0.00 96 1014.6
20260510100024 51 279 0.0 1.0 0.00 0.00 0.00 96 1014.6
20260510095523 51 279 0.0 0.0 0.00 0.00 0.00 96 1014.7
20260510095024 52 279 0.0 0.0 0.00 0.00 0.00 96 1014.5
20260510094523 52 279 0.0 0.0 0.00 0.00 0.00 96 1014.5
20260510094021 52 279 0.0 0.0 0.00 0.00 0.00 96 1014.3
20260510093519 52 279 0.0 0.0 0.00 0.00 0.00 96 1014.1
20260510093019 52 279 0.0 0.0 0.00 0.00 0.00 96 1014.1
20260510092518 52 279 0.0 0.0 0.00 0.00 0.00 96 1014.0
20260510092018 52 279 0.0 0.0 0.00 0.00 0.00 96 1013.9
20260510091540 52 279 0.0 0.0 0.00 0.00 0.00 96 1014.0
20260510091017 52 279 0.0 0.0 0.00 0.00 0.00 96 1013.9
20260510090517 52 279 0.0 0.0 0.00 0.00 0.00 96 1013.9
20260510090016 52 279 0.0 1.0 0.00 0.00 0.00 96 1013.9
20260510085515 52 279 0.0 1.0 0.00 0.00 0.00 96 1013.9
20260510085013 53 279 0.0 0.0 0.00 0.00 0.00 96 1013.7
20260510084513 53 279 0.0 0.0 0.00 0.00 0.00 96 1013.7
20260510084013 53 279 0.0 0.0 0.00 0.00 0.00 96 1013.6
20260510083517 53 279 0.0 1.0 0.00 0.00 0.00 96 1013.5
20260510083010 53 279 0.0 1.0 0.00 0.00 0.00 96 1013.4
20260510082509 53 279 0.0 1.0 0.00 0.00 0.00 96 1013.4
20260510082010 53 279 0.0 1.0 0.00 0.00 0.00 96 1013.4
20260510081523 53 279 0.0 0.0 0.00 0.00 0.00 96 1013.3
20260510081008 53 279 0.0 0.0 0.00 0.00 0.00 96 1013.3
20260510080508 53 279 0.0 0.0 0.00 0.00 0.00 96 1013.1
20260510080011 53 279 0.0 0.0 0.00 0.00 0.00 96 1013.1
20260510075509 53 279 0.0 0.0 0.00 0.00 0.00 96 1012.9
20260510075006 54 279 0.0 0.0 0.00 0.00 0.00 96 1013.0
20260510074508 54 279 0.0 0.0 0.00 0.00 0.00 96 1013.0
20260510074011 54 279 0.0 0.0 0.00 0.00 0.00 96 1013.0
20260510073504 54 279 0.0 0.0 0.00 0.00 0.00 96 1013.0
20260510073004 54 279 0.0 0.0 0.00 0.00 0.00 96 1012.9
20260510072503 54 279 0.0 0.0 0.00 0.00 0.00 96 1012.9
20260510072003 55 279 0.0 0.0 0.00 0.00 0.00 96 1013.0
20260510071502 55 279 0.0 0.0 0.00 0.00 0.00 96 1012.9
20260510071004 55 279 0.0 0.0 0.00 0.00 0.00 96 1012.9
20260510070500 55 279 0.0 0.0 0.00 0.00 0.00 96 1012.8
20260510070108 55 279 0.0 0.0 0.00 0.00 0.00 96 1012.8
20260510065600 55 279 0.0 0.0 0.00 0.00 0.00 96 1012.9
20260510065059 55 279 0.0 0.0 0.00 0.00 0.00 96 1012.8
20260510064611 55 279 0.0 0.0 0.00 0.00 0.00 96 1012.8
20260510064059 55 279 0.0 0.0 0.00 0.00 0.00 95 1012.7
20260510063558 55 279 0.0 0.0 0.00 0.00 0.00 96 1012.8
20260510063057 56 279 0.0 0.0 0.00 0.00 0.00 96 1012.8
20260510062600 56 279 0.0 0.0 0.00 0.00 0.00 96 1012.8
20260510062056 56 279 0.0 0.0 0.00 0.00 0.00 95 1012.8
20260510061556 56 279 0.0 0.0 0.00 0.00 0.00 95 1012.9
20260510061102 57 279 0.0 0.0 0.00 0.00 0.00 95 1012.9
20260510060557 57 279 0.0 0.0 0.00 0.00 0.00 95 1012.9
20260510060054 57 279 0.0 1.0 0.00 0.00 0.00 95 1012.9
20260510055554 57 279 0.0 1.0 0.00 0.00 0.00 95 1012.9
20260510055053 57 279 0.0 1.0 0.00 0.00 0.00 95 1012.9
20260510054553 57 279 0.0 0.0 0.00 0.00 0.00 95 1012.9
20260510054051 57 279 0.0 0.0 0.00 0.00 0.00 95 1013.0
20260510053550 57 279 0.0 0.0 0.00 0.00 0.00 95 1013.0
20260510053050 57 279 0.0 0.0 0.00 0.00 0.00 95 1013.0
20260510052549 57 279 0.0 1.0 0.00 0.00 0.00 95 1013.0
20260510052049 57 279 0.0 2.0 0.00 0.00 0.00 95 1013.0
20260510051552 57 280 0.0 1.0 0.00 0.00 0.00 94 1013.1
20260510051050 58 279 0.0 1.0 0.00 0.00 0.00 94 1013.2
20260510050550 58 279 0.0 0.0 0.00 0.00 0.00 94 1013.2
20260510050050 59 279 0.0 0.0 0.00 0.00 0.00 94 1013.2
20260510045545 59 279 0.0 0.0 0.00 0.00 0.00 94 1013.1
20260510045045 59 279 0.0 0.0 0.00 0.00 0.00 94 1013.2
20260510044553 59 279 0.0 0.0 0.00 0.00 0.00 94 1013.3
20260510044043 60 279 0.0 0.0 0.00 0.00 0.00 94 1013.3
20260510043543 60 279 0.0 0.0 0.00 0.00 0.00 93 1013.3
20260510043042 60 279 0.0 0.0 0.00 0.00 0.00 93 1013.2
20260510042545 60 279 0.0 0.0 0.00 0.00 0.00 93 1013.2
20260510042040 60 279 0.0 0.0 0.00 0.00 0.00 93 1013.2
20260510041540 60 279 0.0 0.0 0.00 0.00 0.00 93 1013.2
20260510041043 60 279 0.0 0.0 0.00 0.00 0.00 93 1013.1
20260510040540 60 279 0.0 0.0 0.00 0.00 0.00 93 1013.0
20260510040038 60 279 0.0 0.0 0.00 0.00 0.00 93 1013.0
20260510035537 61 279 0.0 0.0 0.00 0.00 0.00 92 1013.0
20260510035037 61 279 0.0 0.0 0.00 0.00 0.00 92 1012.9
20260510034543 61 279 0.0 0.0 0.00 0.00 0.00 92 1012.9
20260510034037 61 279 0.0 0.0 0.00 0.00 0.00 91 1013.0
20260510033537 61 279 0.0 0.0 0.00 0.00 0.00 91 1013.0
20260510033036 62 279 0.0 0.0 0.00 0.00 0.00 91 1013.0
20260510032536 62 279 0.0 0.0 0.00 0.00 0.00 90 1012.9
20260510032038 62 280 0.0 0.0 0.00 0.00 0.00 90 1013.0
20260510031539 62 280 0.0 0.0 0.00 0.00 0.00 90 1012.9
20260510031034 62 279 0.0 0.0 0.00 0.00 0.00 90 1013.0
20260510030535 62 279 0.0 0.0 0.00 0.00 0.00 90 1013.0
20260510030034 62 279 0.0 0.0 0.00 0.00 0.00 90 1012.9
20260510025534 63 279 0.0 0.0 0.00 0.00 0.00 89 1012.7
20260510025033 63 279 0.0 0.0 0.00 0.00 0.00 89 1012.6
20260510024538 63 279 0.0 0.0 0.00 0.00 0.00 88 1012.6
20260510024032 64 279 0.0 0.0 0.00 0.00 0.00 87 1012.5
20260510023531 64 279 0.0 0.0 0.00 0.00 0.00 87 1012.4
20260510023032 64 279 0.0 0.0 0.00 0.00 0.00 87 1012.5
20260510022531 64 279 0.0 0.0 0.00 0.00 0.00 86 1012.5
20260510022031 64 280 0.0 0.0 0.00 0.00 0.00 85 1012.5
20260510021531 65 279 0.0 0.0 0.00 0.00 0.00 84 1012.4
20260510021034 65 280 0.0 0.0 0.00 0.00 0.00 84 1012.2
20260510020531 65 279 0.0 0.0 0.00 0.00 0.00 83 1012.1
20260510020031 66 279 0.0 0.0 0.00 0.00 0.00 83 1012.1
20260510015530 66 279 0.0 0.0 0.00 0.00 0.00 82 1012.1
20260510015030 66 279 0.0 0.0 0.00 0.00 0.00 81 1012.0
20260510014531 66 279 0.0 0.0 0.00 0.00 0.00 80 1011.8
20260510014030 66 279 0.0 0.0 0.00 0.00 0.00 80 1011.8
20260510013530 67 280 0.0 0.0 0.00 0.00 0.00 80 1011.7
20260510013029 67 279 0.0 0.0 0.00 0.00 0.00 81 1011.7
20260510012531 67 279 0.0 0.0 0.00 0.00 0.00 81 1011.6
20260510012030 67 280 0.0 0.0 0.00 0.00 0.00 80 1011.5
20260510011530 68 279 0.0 0.0 0.00 0.00 0.00 81 1011.4
20260510011029 68 279 0.0 0.0 0.00 0.00 0.00 81 1011.3
20260510010631 68 252 0.0 0.0 0.00 0.00 0.00 80 1011.2
20260510010029 68 252 0.0 0.0 0.00 0.00 0.00 80 1011.0
20260510005528 68 252 0.0 0.0 0.00 0.00 0.00 79 1011.1
20260510005029 69 252 0.0 0.0 0.00 0.00 0.00 79 1011.0
20260510004530 69 252 0.0 0.0 0.00 0.00 0.00 79 1010.9
20260510004027 69 252 0.0 0.0 0.00 0.00 0.00 79 1010.8
20260510003536 70 252 0.0 0.0 0.00 0.00 0.00 78 1010.8
20260510003041 70 252 0.0 1.0 0.00 0.00 0.00 79 1010.8
20260510002527 70 252 0.0 2.0 0.00 0.00 0.00 79 1010.6
20260510002128 70 130 0.0 2.0 0.00 0.00 0.00 79 1010.5
20260510001526 70 178 0.0 0.0 0.00 0.00 0.00 79 1010.4
20260510001027 70 178 0.0 0.0 0.00 0.00 0.00 78 1010.4
20260510000526 70 178 0.0 1.0 0.00 0.00 0.00 78 1010.4
20260510000029 70 178 0.0 1.0 0.00 0.00 0.00 79 1010.3
20260509235526 70 94 0.0 2.0 0.00 0.00 0.00 78 1010.5
20260509235026 71 94 0.0 3.0 0.00 0.00 0.00 78 1010.4
20260509234536 70 108 1.0 3.0 0.00 0.00 0.00 78 1010.3
20260509234029 70 96 0.0 2.0 0.00 0.00 0.00 78 1010.2
20260509233526 71 96 0.0 3.0 0.00 0.00 0.00 78 1010.2
20260509233038 71 93 0.0 3.0 0.00 0.00 0.00 78 1010.1
20260509232525 71 88 0.0 2.0 0.00 0.00 0.00 77 1010.1
20260509232025 71 88 0.0 2.0 0.00 0.00 0.00 77 1010.1
20260509231528 71 156 0.0 5.0 0.00 0.00 0.00 77 1010.1
20260509231025 71 110 0.0 5.0 0.00 0.00 0.00 76 1010.1
20260509230525 72 106 1.0 4.0 0.00 0.00 0.00 76 1010.0
20260509230025 72 119 2.0 4.0 0.00 0.00 0.00 76 1010.0
20260509225525 72 360 0.0 4.0 0.00 0.00 0.00 76 1010.0
20260509225024 72 103 1.0 3.0 0.00 0.00 0.00 75 1010.0
20260509224526 72 98 1.0 4.0 0.00 0.00 0.00 75 1010.0
20260509224024 72 111 2.0 5.0 0.00 0.00 0.00 75 1009.9
20260509223523 72 86 2.0 5.0 0.00 0.00 0.00 74 1010.0
20260509223024 72 94 0.0 2.0 0.00 0.00 0.00 74 1009.9
20260509222524 73 117 0.0 5.0 0.00 0.00 0.00 73 1009.8
20260509222022 73 114 1.0 5.0 0.00 0.00 0.00 72 1009.7
20260509221522 73 84 1.0 3.0 0.00 0.00 0.00 70 1009.6
20260509221024 74 240 0.0 0.0 0.00 0.00 0.00 64 1009.6
20260509220521 73 240 0.0 0.0 0.00 0.00 0.00 68 1009.5
20260509220027 74 240 0.0 1.0 0.00 0.00 0.00 66 1009.4
20260509215524 74 240 0.0 2.0 0.00 0.00 0.00 64 1009.5
20260509215022 74 240 0.0 2.0 0.00 0.00 0.00 62 1009.5
20260509214520 74 251 0.0 2.0 0.00 0.00 0.00 61 1009.6
20260509214023 74 251 0.0 3.0 0.00 0.00 0.00 61 1009.6
20260509213526 75 251 1.0 3.0 0.00 0.00 0.00 60 1009.5
20260509213019 75 246 1.0 3.0 0.00 0.00 0.00 60 1009.6
20260509212519 75 227 0.0 3.0 0.00 0.00 0.00 59 1009.6
20260509212018 75 244 1.0 3.0 0.00 0.00 0.00 59 1009.6
20260509211518 76 157 1.0 3.0 0.00 0.00 0.00 60 1009.6
20260509211019 76 228 0.0 3.0 0.00 0.00 0.00 58 1009.5
20260509210518 76 254 1.0 3.0 0.00 0.00 0.00 61 1009.5
20260509210023 75 213 0.0 2.0 0.00 0.00 0.00 59 1009.4
20260509205517 76 213 0.0 3.0 0.00 0.00 0.00 61 1009.5
20260509205016 76 238 0.0 3.0 0.00 0.00 0.00 60 1009.3
20260509204516 76 234 0.0 3.0 0.00 0.00 0.00 58 1009.3
20260509204019 75 258 0.0 4.0 0.00 0.00 0.00 59 1009.2
20260509203515 75 229 0.0 4.0 0.00 0.00 0.00 59 1009.1
20260509203014 75 217 0.0 2.0 0.00 0.00 0.00 58 1009.2
20260509202514 75 212 0.0 2.0 0.00 0.00 0.00 62 1009.1
20260509202013 75 213 0.0 2.0 0.00 0.00 0.00 60 1009.1
20260509201514 75 260 1.0 2.0 0.00 0.00 0.00 58 1009.3
20260509201012 75 260 0.0 3.0 0.00 0.00 0.00 60 1009.1
20260509200517 75 260 1.0 3.0 0.00 0.00 0.00 57 1009.3
20260509200011 75 256 1.0 3.0 0.00 0.00 0.00 57 1009.3
20260509195511 75 253 0.0 4.0 0.00 0.00 0.00 57 1009.6
20260509195012 75 260 2.0 4.0 0.00 0.00 0.00 57 1009.6
20260509194510 75 245 1.0 4.0 0.00 0.00 0.00 55 1009.7
20260509194008 75 257 1.0 3.0 0.00 0.00 0.00 59 1009.8
20260509193507 75 272 1.0 3.0 0.00 0.00 0.00 58 1009.8
20260509193006 74 248 0.0 3.0 0.00 0.00 0.00 63 1009.9
20260509192505 75 241 1.0 3.0 0.00 0.00 0.00 63 1009.8
20260509192004 75 271 1.0 3.0 0.00 0.00 0.00 63 1009.9
20260509191503 75 192 1.0 3.0 0.00 0.00 0.00 65 1009.9
20260509191006 74 299 0.0 3.0 0.00 0.00 0.00 66 1010.1
20260509190506 74 285 1.0 4.0 0.00 0.00 0.00 67 1010.2
20260509190002 74 264 1.0 4.0 0.00 0.00 0.00 65 1010.1
20260509185504 74 243 0.0 3.0 0.00 0.00 0.00 64 1010.3
20260509185101 74 245 1.0 3.0 0.00 0.00 0.00 65 1010.3
20260509184610 73 305 2.0 3.0 0.00 0.00 0.00 65 1010.2
20260509184100 73 249 1.0 3.0 0.00 0.00 0.00 65 1010.2
20260509183559 73 290 1.0 3.0 0.00 0.00 0.00 64 1010.2
20260509183059 73 254 1.0 2.0 0.00 0.00 0.00 64 1010.3
20260509182600 72 299 0.0 2.0 0.00 0.00 0.00 68 1010.5
20260509182058 72 302 0.0 2.0 0.00 0.00 0.00 67 1010.4
20260509181604 72 278 0.0 2.0 0.00 0.00 0.00 66 1010.3
20260509181059 72 304 1.0 3.0 0.00 0.00 0.00 67 1010.3
20260509180601 73 215 1.0 3.0 0.00 0.00 0.00 62 1010.3
20260509180103 73 259 1.0 3.0 0.00 0.00 0.00 63 1010.1
20260509175556 73 284 0.0 2.0 0.00 0.00 0.00 65 1010.2
20260509175055 73 250 0.0 2.0 0.00 0.00 0.00 64 1010.2
20260509174556 73 283 0.0 3.0 0.00 0.00 0.00 65 1010.2
20260509174053 72 355 0.0 2.0 0.00 0.00 0.00 66 1010.4
20260509173553 71 355 0.0 2.0 0.00 0.00 0.00 66 1010.5
20260509173057 71 225 0.0 3.0 0.00 0.00 0.00 68 1010.6
20260509172553 71 216 0.0 3.0 0.00 0.00 0.00 63 1010.7
20260509172052 71 198 0.0 2.0 0.00 0.00 0.00 66 1010.7
20260509171553 71 239 0.0 2.0 0.00 0.00 0.00 67 1010.7
20260509171054 72 275 1.0 2.0 0.00 0.00 0.00 64 1010.7
20260509170552 72 344 0.0 3.0 0.00 0.00 0.00 64 1010.7
20260509170100 72 292 1.0 3.0 0.00 0.00 0.00 66 1010.8
20260509165553 72 248 2.0 3.0 0.00 0.00 0.00 66 1010.8
20260509165049 71 43 0.0 3.0 0.00 0.00 0.00 68 1010.9
20260509164550 71 257 2.0 3.0 0.00 0.00 0.00 68 1010.9
20260509164051 71 256 1.0 3.0 0.00 0.00 0.00 67 1011.1